• Em Portugal
  • Lista de países
  • Para 7 dias
  • Temperatura da água
  • Mapas de satélite
  • Mapa do tempo
  • Widgets de tempo
  • user-avatar
    Iniciar Sessão

    Previsão horária em Lindenberg im Allgäu

    Hoje, 21 Setembro, Quinta-feira

    Tempo Temperatura Precipitação Vento Pressão Humidade
    00:00 +10°C° 0 mm 2 m/s 760 mmHg 88%
    01:00 +9°C° 0 mm 2 m/s 760 mmHg 90%
    02:00 +9°C° 0 mm 2 m/s 760 mmHg 91%
    03:00 +9°C° 0 mm 2 m/s 761 mmHg 92%
    04:00 +10°C° 0 mm 1 m/s 761 mmHg 93%
    05:00 +9°C° 0 mm 2 m/s 761 mmHg 91%
    06:00 +9°C° 0 mm 2 m/s 761 mmHg 90%
    07:00 +9°C° 0 mm 2 m/s 761 mmHg 89%
    08:00 +12°C° 0 mm 2 m/s 761 mmHg 81%
    09:00 +14°C° 0 mm 2 m/s 761 mmHg 73%
    10:00 +16°C° 0 mm 2 m/s 761 mmHg 65%
    11:00 +17°C° 0 mm 2 m/s 761 mmHg 62%
    12:00 +18°C° 0 mm 2 m/s 760 mmHg 59%
    13:00 +19°C° 0 mm 2 m/s 760 mmHg 56%
    14:00 +18°C° 0 mm 2 m/s 760 mmHg 57%
    15:00 +18°C° 0 mm 2 m/s 760 mmHg 57%
    16:00 +18°C° 0 mm 2 m/s 760 mmHg 58%
    17:00 +17°C° 0 mm 2 m/s 760 mmHg 64%
    18:00 +15°C° 0 mm 2 m/s 760 mmHg 71%
    19:00 +14°C° 0 mm 1 m/s 760 mmHg 78%
    20:00 +13°C° 0 mm 1 m/s 760 mmHg 80%
    21:00 +13°C° 0 mm 1 m/s 760 mmHg 83%
    22:00 +13°C° 0 mm 1 m/s 760 mmHg 85%
    23:00 +12°C° 0 mm 1 m/s 760 mmHg 88%

    Amanhã, 22 Setembro, Sexta-feira

    Tempo Temperatura Precipitação Vento Pressão Humidade
    00:00 +12°C° 0 mm 1 m/s 760 mmHg 90%
    01:00 +11°C° 0 mm 1 m/s 760 mmHg 92%
    02:00 +11°C° 0 mm 1 m/s 760 mmHg 93%
    03:00 +11°C° 0 mm 1 m/s 760 mmHg 93%
    04:00 +10°C° 0 mm 1 m/s 760 mmHg 94%
    05:00 +11°C° 0 mm 1 m/s 760 mmHg 93%
    06:00 +11°C° 0 mm 1 m/s 760 mmHg 92%
    07:00 +11°C° 0 mm 1 m/s 760 mmHg 91%
    08:00 +13°C° 0 mm 1 m/s 760 mmHg 83%
    09:00 +15°C° 0 mm 1 m/s 760 mmHg 74%
    10:00 +18°C° 0 mm 1 m/s 760 mmHg 66%
    11:00 +19°C° 0 mm 1 m/s 760 mmHg 62%
    12:00 +18°C° 0 mm 2 m/s 760 mmHg 57%
    13:00 +19°C° 0 mm 2 m/s 760 mmHg 53%
    14:00 +19°C° 0 mm 2 m/s 760 mmHg 53%
    15:00 +19°C° 0 mm 2 m/s 760 mmHg 53%
    16:00 +19°C° 0 mm 2 m/s 760 mmHg 54%
    17:00 +17°C° 0 mm 2 m/s 760 mmHg 60%
    18:00 +16°C° 0 mm 1 m/s 761 mmHg 66%
    19:00 +14°C° 0 mm 1 m/s 761 mmHg 72%
    20:00 +14°C° 0 mm 1 m/s 761 mmHg 75%
    21:00 +13°C° 0 mm 1 m/s 761 mmHg 78%
    22:00 +13°C° 0 mm 1 m/s 761 mmHg 81%
    23:00 +13°C° 0 mm 1 m/s 762 mmHg 82%

    Depois de amanhã, 23 Setembro, Sábado

    Tempo Temperatura Precipitação Vento Pressão Humidade
    00:00 +11°C° 0 mm 0 m/s 762 mmHg 84%
    01:00 +11°C° 0 mm 0 m/s 762 mmHg 85%
    02:00 +11°C° 0 mm 0 m/s 762 mmHg 86%
    03:00 +12°C° 0 mm 1 m/s 762 mmHg 87%
    04:00 +12°C° 0 mm 1 m/s 762 mmHg 88%
    05:00 +12°C° 0,1 mm 1 m/s 762 mmHg 88%
    06:00 +12°C° 0,1 mm 1 m/s 762 mmHg 88%
    07:00 +12°C° 0,1 mm 1 m/s 762 mmHg 87%
    08:00 +13°C° 0,1 mm 1 m/s 762 mmHg 82%
    09:00 +15°C° 0,1 mm 1 m/s 762 mmHg 76%
    10:00 +16°C° 0,1 mm 1 m/s 762 mmHg 71%
    11:00 +17°C° 0 mm 2 m/s 762 mmHg 67%
    12:00 +18°C° 0 mm 2 m/s 761 mmHg 62%
    13:00 +19°C° 0 mm 2 m/s 761 mmHg 58%
    14:00 +19°C° 0 mm 2 m/s 761 mmHg 58%
    15:00 +18°C° 0 mm 2 m/s 761 mmHg 58%
    16:00 +18°C° 0 mm 2 m/s 761 mmHg 58%
    17:00 +17°C° 0 mm 2 m/s 761 mmHg 65%
    18:00 +15°C° 0 mm 1 m/s 761 mmHg 72%
    19:00 +14°C° 0 mm 1 m/s 762 mmHg 78%
    20:00 +13°C° 0 mm 1 m/s 762 mmHg 81%
    21:00 +13°C° 0 mm 1 m/s 762 mmHg 83%
    22:00 +11°C° 0 mm 0 m/s 762 mmHg 86%
    23:00 +11°C° 0 mm 0 m/s 762 mmHg 87%

    24 Setembro, Domingo

    Tempo Temperatura Precipitação Vento Pressão Humidade
    00:00 +11°C° 0 mm 0 m/s 762 mmHg 88%
    01:00 +10°C° 0 mm 0 m/s 762 mmHg 89%
    02:00 +10°C° 0 mm 0 m/s 762 mmHg 90%
    03:00 +10°C° 0 mm 0 m/s 762 mmHg 90%
    04:00 +10°C° 0 mm 0 m/s 762 mmHg 91%
    05:00 +10°C° 0 mm 0 m/s 763 mmHg 90%
    06:00 +10°C° 0 mm 0 m/s 763 mmHg 89%
    07:00 +11°C° 0 mm 0 m/s 763 mmHg 88%
    08:00 +13°C° 0 mm 0 m/s 763 mmHg 79%
    09:00 +16°C° 0 mm 1 m/s 763 mmHg 71%
    10:00 +19°C° 0 mm 1 m/s 763 mmHg 62%
    11:00 +19°C° 0 mm 1 m/s 763 mmHg 59%
    12:00 +20°C° 0 mm 1 m/s 763 mmHg 55%
    13:00 +21°C° 0 mm 1 m/s 763 mmHg 51%
    14:00 +20°C° 0 mm 2 m/s 763 mmHg 52%
    15:00 +20°C° 0 mm 2 m/s 763 mmHg 54%
    16:00 +20°C° 0 mm 2 m/s 763 mmHg 55%
    17:00 +18°C° 0 mm 2 m/s 763 mmHg 63%
    18:00 +17°C° 0 mm 2 m/s 763 mmHg 70%
    19:00 +15°C° 0 mm 2 m/s 764 mmHg 78%
    20:00 +15°C° 0 mm 2 m/s 764 mmHg 82%
    21:00 +14°C° 0 mm 2 m/s 763 mmHg 85%
    22:00 +14°C° 0 mm 2 m/s 763 mmHg 88%
    23:00 +13°C° 0 mm 2 m/s 763 mmHg 91%

    25 Setembro, Segunda-feira

    Tempo Temperatura Precipitação Vento Pressão Humidade
    00:00 +13°C° 0 mm 2 m/s 763 mmHg 93%
    01:00 +13°C° 0 mm 2 m/s 763 mmHg 95%
    02:00 +13°C° 0 mm 2 m/s 763 mmHg 95%
    03:00 +13°C° 0 mm 2 m/s 762 mmHg 96%
    04:00 +13°C° 0 mm 2 m/s 762 mmHg 96%
    05:00 +13°C° 0,1 mm 2 m/s 762 mmHg 96%
    06:00 +13°C° 0,1 mm 2 m/s 762 mmHg 95%
    07:00 +14°C° 0,1 mm 2 m/s 762 mmHg 95%
    08:00 +15°C° 0 mm 2 m/s 762 mmHg 87%
    09:00 +16°C° 0 mm 3 m/s 762 mmHg 80%
    10:00 +18°C° 0 mm 3 m/s 762 mmHg 72%
    11:00 +18°C° 0 mm 3 m/s 762 mmHg 69%
    12:00 +19°C° 0 mm 3 m/s 761 mmHg 66%
    13:00 +20°C° 0 mm 3 m/s 761 mmHg 62%
    14:00 +19°C° 0,1 mm 3 m/s 761 mmHg 63%
    15:00 +19°C° 0,1 mm 3 m/s 761 mmHg 64%
    16:00 +19°C° 0,1 mm 4 m/s 761 mmHg 65%
    17:00 +18°C° 0,1 mm 3 m/s 761 mmHg 71%
    18:00 +16°C° 0,1 mm 2 m/s 761 mmHg 77%
    19:00 +15°C° 0,1 mm 2 m/s 761 mmHg 83%
    20:00 +15°C° 0 mm 2 m/s 761 mmHg 85%
    21:00 +14°C° 0 mm 2 m/s 761 mmHg 87%
    22:00 +14°C° 0 mm 2 m/s 761 mmHg 89%
    23:00 +13°C° 0 mm 2 m/s 761 mmHg 91%

    26 Setembro, Terça-feira

    Tempo Temperatura Precipitação Vento Pressão Humidade
    00:00 +13°C° 0 mm 2 m/s 761 mmHg 92%
    01:00 +13°C° 0 mm 2 m/s 761 mmHg 94%
    02:00 +13°C° 0 mm 2 m/s 761 mmHg 94%
    03:00 +13°C° 0 mm 2 m/s 761 mmHg 94%
    04:00 +13°C° 0 mm 2 m/s 761 mmHg 95%
    05:00 +13°C° 0 mm 2 m/s 761 mmHg 94%
    06:00 +13°C° 0 mm 2 m/s 761 mmHg 94%
    07:00 +12°C° 0 mm 3 m/s 761 mmHg 94%
    08:00 +13°C° 0,1 mm 3 m/s 761 mmHg 91%
    09:00 +13°C° 0,1 mm 3 m/s 761 mmHg 88%
    10:00 +14°C° 0,1 mm 3 m/s 761 mmHg 85%
    11:00 +14°C° 0,1 mm 3 m/s 761 mmHg 83%
    12:00 +16°C° 0,1 mm 3 m/s 761 mmHg 80%
    13:00 +17°C° 0,1 mm 3 m/s 761 mmHg 78%
    14:00 +17°C° 0,2 mm 3 m/s 761 mmHg 75%
    15:00 +18°C° 0,2 mm 3 m/s 761 mmHg 73%
    16:00 +18°C° 0,2 mm 3 m/s 761 mmHg 71%
    17:00 +17°C° 0,2 mm 2 m/s 761 mmHg 77%
    18:00 +16°C° 0,2 mm 2 m/s 761 mmHg 83%
    19:00 +15°C° 0,2 mm 2 m/s 761 mmHg 89%
    20:00 +14°C° 0,1 mm 2 m/s 761 mmHg 90%
    21:00 +14°C° 0,1 mm 2 m/s 761 mmHg 91%
    22:00 +14°C° 0,1 mm 2 m/s 761 mmHg 92%
    23:00 +13°C° 0 mm 2 m/s 761 mmHg 92%
    Mostrar mais